Stations météo

Publicité
Braemar, Grande-Bretagne (99089): Température de l'air & dewpoint: 13.11.2017 20:00:00 - 19.11.2017 20:00:00 (GMT)Braemar, Grande-Bretagne (99089): Température de l'air -20cm & Température de l'air -100cm: 13.11.2017 20:00:00 - 19.11.2017 20:00:00 (GMT)Braemar, Grande-Bretagne (99089): Quantités de précipitations: 13.11.2017 20:00:00 - 19.11.2017 20:00:00 (GMT)
Date & Time tt [°C] td [°C] tt -20cm [°C] tt -100cm [°C] rr [mm]
19.11.2017 20:00:00 - - - - -
19.11.2017 19:00:00 1,0 -0,5 - - 0,0
19.11.2017 18:00:00 1,2 -0,7 - - 0,0
19.11.2017 17:00:00 1,8 -0,7 - - 0,0
19.11.2017 16:00:00 2,7 -0,7 - - 0,0
19.11.2017 15:00:00 3,0 -0,9 - - 0,0
19.11.2017 14:00:00 3,1 -0,8 - - 0,0
19.11.2017 13:00:00 3,5 -0,6 - - 0,0
19.11.2017 12:00:00 - - - - 0,0
19.11.2017 11:00:00 3,4 -0,3 - - 0,0
19.11.2017 10:00:00 1,7 -0,4 - - 0,0
19.11.2017 09:00:00 1,9 -0,7 4,0 6,4 0,0
19.11.2017 08:00:00 2,8 -1,8 - - 0,0
19.11.2017 07:00:00 2,2 -1,6 - - 0,0
19.11.2017 06:00:00 2,7 -1,7 - - 0,0
19.11.2017 05:00:00 2,5 -1,8 - - 0,0
19.11.2017 04:00:00 2,6 -2,1 - - 0,0
19.11.2017 03:00:00 2,3 -1,9 - - 0,0
19.11.2017 02:00:00 3,1 -1,9 - - -
19.11.2017 01:00:00 3,5 -1,2 - - 0,0
19.11.2017 00:00:00 3,7 -1,6 - - 0,0
18.11.2017 23:00:00 3,7 -1,4 - - 0,0
18.11.2017 22:00:00 3,3 -0,8 - - 0,0
18.11.2017 21:00:00 3,2 0,0 - - 0,0
18.11.2017 20:00:00 2,9 -0,9 - - 0,0
18.11.2017 19:00:00 2,5 -1,1 - - 0,0
18.11.2017 18:00:00 3,2 -2,5 - - 0,0
18.11.2017 17:00:00 3,1 -3,4 - - 0,0
18.11.2017 16:00:00 3,3 -4,2 - - 0,0
18.11.2017 15:00:00 3,8 -4,6 - - 0,0
18.11.2017 14:00:00 4,4 -4,1 - - 0,0
18.11.2017 13:00:00 4,4 -4,6 - - 0,0
18.11.2017 12:00:00 4,5 -4,9 - - 0,0
18.11.2017 11:00:00 4,1 -4,0 - - 0,0
18.11.2017 10:00:00 3,2 -4,7 - - 0,0
18.11.2017 09:00:00 2,5 -4,1 4,4 6,5 0,0
18.11.2017 08:00:00 2,6 -4,1 - - 0,0
18.11.2017 07:00:00 2,8 -3,6 - - 0,0
18.11.2017 06:00:00 2,7 -3,1 - - 0,0
18.11.2017 05:00:00 2,8 -2,4 - - 0,2
18.11.2017 04:00:00 2,7 -2,4 - - 0,2
18.11.2017 03:00:00 3,4 -1,7 - - 0,0
18.11.2017 02:00:00 3,7 -0,7 - - 0,2
18.11.2017 01:00:00 3,9 1,2 - - 0,2
18.11.2017 00:00:00 4,5 0,8 - - 0,0
17.11.2017 23:00:00 4,2 2,2 - - 0,0
17.11.2017 22:00:00 4,4 2,2 - - 0,0
17.11.2017 21:00:00 4,8 2,0 - - 0,0
17.11.2017 20:00:00 5,0 2,0 - - 0,0
17.11.2017 19:00:00 4,9 1,8 - - 0,0
17.11.2017 18:00:00 5,1 1,6 - - 0,0
17.11.2017 17:00:00 5,1 1,2 - - 0,0
17.11.2017 16:00:00 5,5 2,2 - - 0,0
17.11.2017 15:00:00 5,5 2,1 - - 0,0
17.11.2017 14:00:00 6,0 2,2 - - 0,0
17.11.2017 13:00:00 6,2 2,6 - - 0,0
17.11.2017 12:00:00 6,0 1,6 - - 0,0
17.11.2017 11:00:00 5,9 1,5 - - 0,0
17.11.2017 10:00:00 5,0 2,1 - - 0,0
17.11.2017 09:00:00 4,2 1,8 4,4 6,7 0,0
17.11.2017 08:00:00 4,6 1,6 - - 0,0
17.11.2017 07:00:00 4,1 1,4 - - 0,0
17.11.2017 06:00:00 3,8 1,2 - - 0,0
17.11.2017 05:00:00 3,5 0,6 - - 0,0
17.11.2017 04:00:00 3,2 0,3 - - 0,0
17.11.2017 03:00:00 3,1 0,4 - - 0,0
17.11.2017 02:00:00 3,1 0,2 - - 0,0
17.11.2017 01:00:00 3,1 -0,8 - - 0,0
17.11.2017 00:00:00 3,1 -0,1 - - 0,0
16.11.2017 23:00:00 2,4 -0,7 - - 0,0
16.11.2017 22:00:00 2,3 -0,3 - - 0,0
16.11.2017 21:00:00 1,5 -1,0 - - 0,0
16.11.2017 20:00:00 1,3 -1,2 - - 0,0
16.11.2017 19:00:00 2,3 -0,6 - - -
16.11.2017 18:00:00 3,0 -0,4 - - 0,0
16.11.2017 17:00:00 3,0 -1,0 - - -
16.11.2017 16:00:00 3,2 -0,9 - - 0,0
16.11.2017 15:00:00 3,6 -0,2 - - 0,0
16.11.2017 14:00:00 4,7 -0,2 - - 0,0
16.11.2017 13:00:00 4,5 -0,6 - - 0,0
16.11.2017 12:00:00 4,0 -0,5 - - 0,0
16.11.2017 11:00:00 4,4 -0,5 - - 0,2
16.11.2017 10:00:00 4,0 -0,8 - - 0,0
16.11.2017 09:00:00 3,1 1,5 4,7 6,7 0,0
16.11.2017 08:00:00 4,2 2,2 - - 0,4
16.11.2017 07:00:00 5,5 3,4 - - 0,0
16.11.2017 06:00:00 5,9 4,2 - - 1,0
16.11.2017 05:00:00 6,8 4,4 - - 1,8
16.11.2017 04:00:00 9,5 5,8 - - 0,0
16.11.2017 03:00:00 9,2 5,7 - - 0,0
16.11.2017 02:00:00 8,7 5,8 - - 0,0
16.11.2017 01:00:00 7,5 5,7 - - 0,0
16.11.2017 00:00:00 7,5 5,6 - - 0,0
15.11.2017 23:00:00 6,4 4,4 - - 0,0
15.11.2017 22:00:00 6,1 4,4 - - 0,0
15.11.2017 21:00:00 5,8 4,3 - - 0,0
15.11.2017 20:00:00 6,2 3,4 - - 0,0
15.11.2017 19:00:00 6,2 2,9 - - 0,0
15.11.2017 18:00:00 6,5 2,7 - - 0,0
15.11.2017 17:00:00 6,0 2,8 - - 0,0
15.11.2017 16:00:00 6,4 2,6 - - 0,0
15.11.2017 15:00:00 6,4 2,9 - - 0,0
15.11.2017 14:00:00 6,2 2,5 - - 0,2
15.11.2017 13:00:00 6,2 2,9 - - 0,0
15.11.2017 12:00:00 4,7 2,5 - - 0,0
15.11.2017 11:00:00 2,4 1,9 - - 0,0
15.11.2017 10:00:00 0,9 0,5 - - 0,0
15.11.2017 09:00:00 0,9 0,5 4,4 6,7 0,0
15.11.2017 08:00:00 -0,1 -0,5 - - 0,0
15.11.2017 07:00:00 0,7 0,4 - - 0,0
15.11.2017 06:00:00 0,7 0,1 - - 0,0
15.11.2017 05:00:00 2,2 1,1 - - 0,0
15.11.2017 04:00:00 3,5 2,6 - - 0,0
15.11.2017 03:00:00 - - - - 0,2
15.11.2017 02:00:00 4,4 2,9 - - -
15.11.2017 01:00:00 3,8 2,6 - - 0,0
15.11.2017 00:00:00 3,5 2,4 - - 0,0
14.11.2017 23:00:00 3,3 1,6 - - 0,0
14.11.2017 22:00:00 5,3 2,6 - - 0,0
14.11.2017 21:00:00 5,0 2,1 - - 0,0
14.11.2017 20:00:00 5,2 2,6 - - 0,0
14.11.2017 19:00:00 6,4 2,2 - - 0,0
14.11.2017 18:00:00 4,9 2,1 - - 0,0
14.11.2017 17:00:00 6,2 2,5 - - -
14.11.2017 16:00:00 6,6 2,2 - - 0,0
14.11.2017 15:00:00 6,7 2,3 - - 0,0
14.11.2017 14:00:00 7,0 2,2 - - 0,0
14.11.2017 13:00:00 7,0 3,3 - - 0,0
14.11.2017 12:00:00 - - - - 0,0
14.11.2017 11:00:00 7,0 2,2 - - 0,0
14.11.2017 10:00:00 6,2 3,8 - - 0,0
14.11.2017 09:00:00 5,6 3,7 4,0 6,9 0,0
14.11.2017 08:00:00 5,3 3,4 - - 0,0
14.11.2017 07:00:00 5,4 3,5 - - 0,0
14.11.2017 06:00:00 6,3 3,8 - - 0,0
14.11.2017 05:00:00 6,1 4,2 - - 0,0
14.11.2017 04:00:00 6,4 4,9 - - -
14.11.2017 03:00:00 5,6 4,5 - - 0,0
14.11.2017 02:00:00 6,2 5,0 - - 0,0
14.11.2017 01:00:00 7,0 4,9 - - 0,2
14.11.2017 00:00:00 6,7 6,5 - - 0,6
13.11.2017 23:00:00 6,3 5,7 - - 0,0
13.11.2017 22:00:00 6,1 5,2 - - 0,0
13.11.2017 21:00:00 5,9 4,6 - - 0,0
13.11.2017 20:00:00 5,1 3,5 - - 0,0

tt = Température de l'air
td = dewpoint
tt -20cm = Température de l'air -20cm
tt -100cm = Température de l'air -100cm
rr = Quantités de précipitations

stations d'obs. à proximité